Location: Stonelick Lake State Park
(39.2170°N, 84.0850°W)
Time: 14:57:06
(UTC-05:00)

Daily predictions for brighter satellites

Satellite Brightness Start Highest point End
(mag) Time Altitude Azimuth Time Altitude Azimuth Time Altitude Azimuth
MOS 1 4.3 18:43:18 10° SSE 18:48:53 67° ENE 18:54:32 10° N
YAOGAN 1 2.9 18:45:06 10° S 18:49:23 73° WSW 18:53:44 10° NNW
Cosmos 1733 Rocket 4.0 18:45:15 10° SSW 18:49:28 54° W 18:53:44 10° N
Meteor 1-14 Rocket 4.4 18:48:16 10° S 18:54:04 85° E 19:00:02 10° N
Okean 1 3.8 18:51:06 10° N 18:54:50 37° ENE 18:58:32 10° SSE
MONITOR-E 4.1 18:54:09 10° SSE 18:57:10 90° WNW 19:00:12 10° NNW
MOS 1-B Rocket 4.0 18:53:00 10° SSE 18:59:16 89° W 19:04:58 10° NNW
ATLAS CENTAUR R/B 3.4 18:58:29 10° NNE 19:00:36 13° NE 19:02:47 10° ENE
Cosmos 1452 Rocket 4.2 19:00:47 10° NNW 19:05:57 59° WSW 19:11:05 10° S
Cosmos 2227 4.3 19:00:24 10° S 19:05:58 55° ESE 19:11:31 10° NNE
Cosmos 1633 3.0 19:02:43 10° SSW 19:06:15 66° W 19:09:50 10° N
Cosmos 1048 Rocket 4.1 19:01:05 10° SSW 19:06:24 86° WNW 19:11:42 10° NNE
Landsat 4 3.7 19:04:42 10° NNE 19:08:28 89° WNW 19:12:14 10° SSW
EO 1 Del DPAF 3.1 19:05:02 10° NNE 19:08:51 72° ESE 19:12:38 10° S
Cosmos 1891 Rocket 4.4 19:04:30 10° N 19:10:41 72° E 19:16:43 10° SSE
Cosmos 2034 Rocket 4.1 19:06:04 10° N 19:12:24 63° E 19:18:39 10° SSE
CZ-4 R/B 4.1 19:09:10 10° SSW 19:12:28 24° W 19:15:44 10° NW
Meteor 1-18 Rocket 4.2 19:08:36 10° N 19:14:12 88° W 19:19:45 10° S
Cosmos 1975 Rocket 3.3 19:10:16 10° N 19:14:35 46° E 19:18:52 10° SSE
Cosmos 1437 Rocket 2.8 19:14:07 10° S 19:18:10 76° E 19:22:17 10° NNE
Cosmos 2251 Rocket 4.4 19:14:39 10° SSE 19:18:52 25° E 19:23:07 10° NE
GPS 2-05 Rocket1 3.8 19:19:05 10° SW 19:21:57 30° SSE 19:23:37 18° ESE
Meteor 1-19 Rocket 4.3 19:17:24 10° N 19:22:46 50° ENE 19:28:09 10° SSE
SeaSat 1 3.6 19:21:53 16° E 19:24:21 23° NE 19:28:13 10° N
Cosmos 1536 3.9 19:22:48 10° SE 19:26:03 24° E 19:29:20 10° NE
SPOT 3 Rocket 3.8 19:21:00 10° S 19:26:11 73° WSW 19:31:25 10° NNW
Lacrosse 5 rocket 2.8 19:25:07 10° SSE 19:27:09 15° SE 19:27:09 15° SE
Cosmos 1943 3.9 19:23:23 10° N 19:28:29 33° ENE 19:32:10 17° ESE
Cosmos 1184 Rocket 3.6 19:29:10 10° NNE 19:32:04 28° ENE 19:32:29 27° E
Meteor 1-11 Rocket 3.9 19:26:58 10° SSE 19:32:18 48° E 19:37:46 10° NNE
USA 215 3.7 19:27:29 12° ENE 19:33:04 41° SE 19:39:09 10° SSW
ERS-2 2.0 19:34:44 10° SSE 19:38:25 87° ENE 19:42:07 10° NNW
Resurs 01 Rocket 2.7 19:38:44 24° ENE 19:39:02 24° ENE 19:42:37 10° NNE
Gbstr 26 Del rocket 3.2 19:37:41 10° WSW 19:41:20 53° NW 19:43:57 18° NE
FengYun 1-2 T 4.4 19:38:39 10° S 19:44:09 77° WSW 19:49:40 10° NNW
Cosmos 1536 Rocket 4.3 19:41:11 10° NNE 19:45:03 29° ENE 19:45:08 29° ENE
Cosmos 1782 Rocket 4.2 19:40:50 10° SSW 19:45:11 57° W 19:49:33 10° N
SL-16 R/B 4.2 19:45:08 10° NW 19:49:56 29° WSW 19:54:43 10° SSW
Envisat 3.0 19:45:31 10° SSE 19:50:29 57° ENE 19:55:28 10° N
FREGAT/IRIS 3.7 19:49:32 10° S 19:52:22 45° W 19:55:15 10° NNW
CRYOSAT 2 4.3 19:48:33 10° N 19:53:26 88° E 19:58:18 10° S
H-2A R/B 4.4 19:50:45 10° SSW 19:54:23 37° W 19:58:01 10° NNW
HJ-1C 3.5 19:51:12 10° S 19:54:35 76° WSW 19:58:01 10° NNW
Cosmos 494 Rocket 4.0 19:51:29 10° SSW 19:56:42 82° WNW 20:01:55 10° NNE
Cosmos 1939 Rocket 4.0 19:59:33 29° NE 19:59:33 29° NE 20:02:09 10° N
CENTAUR R/B 4.2 19:54:50 10° W 20:00:10 30° NW 20:06:11 10° NNE
CZ-4C R/B 3.1 19:54:51 10° NNW 20:01:50 50° NE 20:05:22 31° ESE
OAO 2 Rocket 3.8 19:58:07 10° W 20:02:53 48° S 20:04:29 35° SE
Meteor 1-23 Rocket 4.4 20:01:17 10° N 20:07:00 53° ENE 20:09:44 30° SE
Cosmos 1110 Rocket 4.2 20:03:10 10° NNW 20:08:27 71° WSW 20:13:44 10° S
USA 186 3.7 20:10:54 21° N 20:10:54 21° N 20:12:09 10° N
Cosmos 1603 4.1 20:03:44 10° NNW 20:09:18 64° WSW 20:14:50 10° S
SJ-6B 3.4 20:09:13 10° S 20:12:56 54° W 20:16:44 10° NNW
Okean 2 Rocket 4.2 20:10:19 10° SSW 20:14:31 44° W 20:18:46 10° N
Meteor 1-4 Rocket 4.0 20:11:24 10° SSW 20:14:41 37° WNW 20:18:03 10° N
Thor Agena Rocket 3.7 20:10:20 10° N 20:15:23 72° WNW 20:20:24 10° SSW
COSMOS 2455 3.1 20:09:50 10° SW 20:15:48 70° WNW 20:21:52 10° NNE
Cosmos 2263 Rocket 2.1 20:11:56 10° SSW 20:17:29 87° WNW 20:23:07 10° NNE
BREEZE-M DEB (TANK) 3.6 20:16:54 10° WSW 20:20:06 75° NW 20:27:39 15° NE
CZ-2D R/B 4.0 20:17:02 10° S 20:20:49 52° W 20:24:38 10° NNW
Cosmos 2151 Rocket 3.8 20:19:52 10° SSW 20:24:19 70° W 20:28:47 10° N
Spot 2 Rocket 3.5 20:40:28 72° N 20:40:28 72° N 20:45:04 10° NNW
ATLAS CENTAUR R/B 2.0 20:35:44 10° NW 20:39:07 55° NW 20:39:07 55° NW
Geosat 4.3 20:43:52 55° SSW 20:43:52 55° SSW 20:47:44 10° SSW
H-2A R/B 4.5 20:47:17 11° NNE 20:47:17 11° NNE 20:47:34 10° NNE
Cosmos 2279 Rocket 3.8 20:38:13 10° N 20:44:29 79° E 20:44:58 74° SE
SeaSat 1 3.2 21:01:41 47° WSW 21:01:41 47° WSW 21:06:20 10° NW
Lacrosse 5 rocket 4.1 21:02:41 10° WSW 21:02:55 11° WSW 21:02:55 11° WSW
Resurs 01 Rocket 3.6 21:16:17 26° WNW 21:16:17 26° WNW 21:19:13 10° NW
USA 215 3.7 21:14:51 48° N 21:16:09 56° NW 21:22:30 10° WSW
USA 267 4.4 21:51:14 36° NNW 21:51:14 36° NNW 21:54:58 10° NW
CZ-4C R/B 3.9 21:43:36 10° NW 21:50:25 40° WSW 21:50:38 40° WSW
